Time,TemperatureF,DewpointF,PressureIn,WindDirection,WindDirectionDegrees,WindSpeedMPH,WindSpeedGustMPH,Humidity,HourlyPrecipIn,Conditions,Clouds,dailyrainin,SoftwareType,DateUTC
2013-04-03 00:14:00,34.0,16.4,30.00,NW,315,1.7,-999.0,48,-99.99,,,0.00,Acu-Link.com,2013-04-03 04:14:00,
2013-04-03 00:30:00,33.8,16.2,30.00,NE,45,2.2,-999.0,48,-99.99,,,0.00,Acu-Link.com,2013-04-03 04:30:00,
2013-04-03 00:45:00,33.4,15.8,29.99,NE,45,2.2,-999.0,48,-99.99,,,0.00,Acu-Link.com,2013-04-03 04:45:00,
2013-04-03 01:00:00,33.6,16.0,29.99,NNE,22,3.2,-999.0,48,-99.99,,,0.00,Acu-Link.com,2013-04-03 05:00:00,
2013-04-03 01:15:00,33.4,16.3,30.00,NE,45,3.7,-999.0,49,-99.99,,,0.00,Acu-Link.com,2013-04-03 05:15:00,
2013-04-03 01:30:00,33.4,16.3,30.00,NE,45,2.7,-999.0,49,-99.99,,,0.00,Acu-Link.com,2013-04-03 05:30:00,
2013-04-03 01:45:00,33.3,16.7,30.01,East,90,2.7,-999.0,50,-99.99,,,0.00,Acu-Link.com,2013-04-03 05:45:00,
2013-04-03 02:00:00,32.4,15.9,30.01,NE,45,0.0,-999.0,50,-99.99,,,0.00,Acu-Link.com,2013-04-03 06:00:00,
2013-04-03 02:15:00,31.1,16.8,30.02,West,270,2.2,-999.0,55,-99.99,,,0.00,Acu-Link.com,2013-04-03 06:15:00,
2013-04-03 02:30:00,29.8,19.1,30.01,WSW,247,1.7,-999.0,64,-99.99,,,0.00,Acu-Link.com,2013-04-03 06:30:00,
2013-04-03 02:46:00,29.1,19.5,30.01,West,270,2.7,-999.0,67,-99.99,,,0.00,Acu-Link.com,2013-04-03 06:46:00,
2013-04-03 03:46:00,26.4,19.3,30.01,SW,225,0.0,-999.0,74,-99.99,,,0.00,Acu-Link.com,2013-04-03 07:46:00,
2013-04-03 04:01:00,25.3,19.1,30.01,East,90,0.0,-999.0,77,-99.99,,,0.00,Acu-Link.com,2013-04-03 08:01:00,
2013-04-03 04:16:00,25.2,20.5,30.01,West,270,0.0,-999.0,82,-99.99,,,0.00,Acu-Link.com,2013-04-03 08:16:00,
2013-04-03 04:32:00,24.1,19.4,30.01,West,270,0.0,-999.0,82,-99.99,,,0.00,Acu-Link.com,2013-04-03 08:32:00,
2013-04-03 04:47:00,23.9,17.8,30.01,North,0,0.0,-999.0,77,-99.99,,,0.00,Acu-Link.com,2013-04-03 08:47:00,
2013-04-03 05:02:00,23.4,18.4,30.01,SSE,157,0.0,-999.0,81,-99.99,,,0.00,Acu-Link.com,2013-04-03 09:02:00,
2013-04-03 05:17:00,22.1,18.3,30.01,ESE,112,0.0,-999.0,85,-99.99,,,0.00,Acu-Link.com,2013-04-03 09:17:00,
2013-04-03 05:32:00,21.4,18.7,30.02,SSE,157,0.0,-999.0,89,-99.99,,,0.00,Acu-Link.com,2013-04-03 09:32:00,
2013-04-03 05:48:00,21.0,18.5,30.02,ESE,112,2.2,-999.0,90,-99.99,,,0.00,Acu-Link.com,2013-04-03 09:48:00,
2013-04-03 06:03:00,20.7,18.5,30.01,NE,45,0.0,-999.0,91,-99.99,,,0.00,Acu-Link.com,2013-04-03 10:03:00,
2013-04-03 06:18:00,20.7,18.2,30.00,NE,45,3.2,-999.0,90,-99.99,,,0.00,Acu-Link.com,2013-04-03 10:18:00,
2013-04-03 06:33:00,20.5,18.0,30.02,NNW,337,3.2,-999.0,90,-99.99,,,0.00,Acu-Link.com,2013-04-03 10:33:00,
2013-04-03 06:48:00,22.5,18.7,30.01,ENE,67,4.7,-999.0,85,-99.99,,,0.00,Acu-Link.com,2013-04-03 10:48:00,
2013-04-03 07:03:00,24.3,18.7,30.02,East,90,3.7,-999.0,79,-99.99,,,0.00,Acu-Link.com,2013-04-03 11:03:00,
2013-04-03 07:18:00,22.1,18.3,30.04,ESE,112,0.0,-999.0,85,-99.99,,,0.00,Acu-Link.com,2013-04-03 11:18:00,
2013-04-03 07:33:00,21.7,17.9,30.05,South,180,0.0,-999.0,85,-99.99,,,0.00,Acu-Link.com,2013-04-03 11:33:00,
2013-04-03 07:48:00,23.4,19.8,30.06,South,180,0.0,-999.0,86,-99.99,,,0.00,Acu-Link.com,2013-04-03 11:48:00,
2013-04-03 08:04:00,27.1,22.1,30.07,West,270,2.2,-999.0,81,-99.99,,,0.00,Acu-Link.com,2013-04-03 12:04:00,
2013-04-03 08:19:00,29.8,22.5,30.07,West,270,3.7,-999.0,74,-99.99,,,0.00,Acu-Link.com,2013-04-03 12:19:00,
2013-04-03 08:34:00,31.6,21.9,30.08,West,270,2.2,-999.0,67,-99.99,,,0.00,Acu-Link.com,2013-04-03 12:34:00,
2013-04-03 08:49:00,35.1,23.0,30.09,West,270,2.2,-999.0,61,-99.99,,,0.00,Acu-Link.com,2013-04-03 12:49:00,
2013-04-03 09:04:00,39.9,24.2,30.09,East,90,3.2,-999.0,53,-99.99,,,0.00,Acu-Link.com,2013-04-03 13:04:00,
2013-04-03 09:19:00,38.3,18.8,30.09,East,90,6.3,-999.0,45,-99.99,,,0.00,Acu-Link.com,2013-04-03 13:19:00,
2013-04-03 09:34:00,37.4,19.0,30.10,SE,135,4.7,-999.0,47,-99.99,,,0.00,Acu-Link.com,2013-04-03 13:34:00,
2013-04-03 09:49:00,39.0,19.0,30.10,ENE,67,4.7,-999.0,44,-99.99,,,0.00,Acu-Link.com,2013-04-03 13:49:00,
2013-04-03 10:04:00,39.6,17.3,30.11,East,90,6.3,-999.0,40,-99.99,,,0.00,Acu-Link.com,2013-04-03 14:04:00,
2013-04-03 10:20:00,40.3,16.1,30.12,ENE,67,6.3,-999.0,37,-99.99,,,0.00,Acu-Link.com,2013-04-03 14:20:00,
2013-04-03 10:35:00,41.2,16.9,30.12,NE,45,7.3,-999.0,37,-99.99,,,0.00,Acu-Link.com,2013-04-03 14:35:00,
2013-04-03 10:50:00,41.5,17.2,30.13,ESE,112,6.8,-999.0,37,-99.99,,,0.00,Acu-Link.com,2013-04-03 14:50:00,
2013-04-03 11:05:00,41.4,16.5,30.13,East,90,2.7,-999.0,36,-99.99,,,0.00,Acu-Link.com,2013-04-03 15:05:00,
2013-04-03 11:20:00,43.9,16.7,30.12,East,90,8.9,-999.0,33,-99.99,,,0.00,Acu-Link.com,2013-04-03 15:20:00,
2013-04-03 11:35:00,44.6,15.1,30.12,NE,45,7.8,-999.0,30,-99.99,,,0.00,Acu-Link.com,2013-04-03 15:35:00,
2013-04-03 11:50:00,43.5,16.3,30.11,ESE,112,4.7,-999.0,33,-99.99,,,0.00,Acu-Link.com,2013-04-03 15:50:00,
2013-04-03 12:05:00,44.4,18.5,30.11,ESE,112,3.2,-999.0,35,-99.99,,,0.00,Acu-Link.com,2013-04-03 16:05:00,
2013-04-03 12:20:00,46.9,18.6,30.10,ESE,112,10.9,-999.0,32,-99.99,,,0.00,Acu-Link.com,2013-04-03 16:20:00,
2013-04-03 12:36:00,46.9,18.6,30.10,East,90,10.4,-999.0,32,-99.99,,,0.00,Acu-Link.com,2013-04-03 16:36:00,
2013-04-03 12:51:00,46.8,17.8,30.09,NNE,22,8.3,-999.0,31,-99.99,,,0.00,Acu-Link.com,2013-04-03 16:51:00,
2013-04-03 13:25:00,47.7,18.6,30.08,ENE,67,10.9,-999.0,31,-99.99,,,0.00,Acu-Link.com,2013-04-03 17:25:00,
2013-04-03 13:40:00,48.2,19.7,30.07,NE,45,8.9,-999.0,32,-99.99,,,0.00,Acu-Link.com,2013-04-03 17:40:00,
2013-04-03 14:00:00,47.7,20.0,30.07,NE,45,11.4,-999.0,33,-99.99,,,0.00,Acu-Link.com,2013-04-03 18:00:00,
2013-04-03 14:15:00,49.3,20.7,30.07,East,90,9.4,-999.0,32,-99.99,,,0.00,Acu-Link.com,2013-04-03 18:15:00,
2013-04-03 14:30:00,49.5,22.3,30.07,NNE,22,6.8,-999.0,34,-99.99,,,0.00,Acu-Link.com,2013-04-03 18:30:00,
2013-04-03 14:45:00,50.7,18.8,30.07,ENE,67,14.5,-999.0,28,-99.99,,,0.00,Acu-Link.com,2013-04-03 18:45:00,
2013-04-03 15:00:00,49.8,17.2,30.07,NE,45,11.4,-999.0,27,-99.99,,,0.00,Acu-Link.com,2013-04-03 19:00:00,
2013-04-03 15:15:00,49.1,19.0,30.07,ESE,112,7.3,-999.0,30,-99.99,,,0.00,Acu-Link.com,2013-04-03 19:15:00,
2013-04-03 15:30:00,50.4,18.5,30.08,ENE,67,8.9,-999.0,28,-99.99,,,0.00,Acu-Link.com,2013-04-03 19:30:00,
2013-04-03 15:46:00,50.4,15.0,30.07,East,90,4.2,-999.0,24,-99.99,,,0.00,Acu-Link.com,2013-04-03 19:46:00,
2013-04-03 16:01:00,49.8,16.3,30.08,NNE,22,3.7,-999.0,26,-99.99,,,0.00,Acu-Link.com,2013-04-03 20:01:00,
2013-04-03 16:31:00,50.0,17.4,30.08,ENE,67,4.7,-999.0,27,-99.99,,,0.00,Acu-Link.com,2013-04-03 20:31:00,
2013-04-03 16:46:00,50.2,15.8,30.08,ENE,67,8.3,-999.0,25,-99.99,,,0.00,Acu-Link.com,2013-04-03 20:46:00,
2013-04-03 17:01:00,49.8,17.2,30.08,East,90,7.3,-999.0,27,-99.99,,,0.00,Acu-Link.com,2013-04-03 21:01:00,
2013-04-03 17:16:00,50.0,16.5,30.06,NE,45,7.3,-999.0,26,-99.99,,,0.00,Acu-Link.com,2013-04-03 21:16:00,
2013-04-03 17:46:00,49.5,16.1,30.05,NNE,22,5.8,-999.0,26,-99.99,,,0.00,Acu-Link.com,2013-04-03 21:46:00,
2013-04-03 18:02:00,49.8,16.3,30.05,ENE,67,4.2,-999.0,26,-99.99,,,0.00,Acu-Link.com,2013-04-03 22:02:00,
2013-04-03 18:17:00,48.9,17.2,30.05,North,0,7.3,-999.0,28,-99.99,,,0.00,Acu-Link.com,2013-04-03 22:17:00,
2013-04-03 18:32:00,48.0,16.5,30.05,NNE,22,8.9,-999.0,28,-99.99,,,0.00,Acu-Link.com,2013-04-03 22:32:00,
2013-04-03 18:47:00,47.1,16.5,30.04,NNE,22,7.3,-999.0,29,-99.99,,,0.00,Acu-Link.com,2013-04-03 22:47:00,
2013-04-03 19:02:00,46.2,16.5,30.03,NNE,22,8.3,-999.0,30,-99.99,,,0.00,Acu-Link.com,2013-04-03 23:02:00,
2013-04-03 19:17:00,45.7,14.5,30.03,NNE,22,10.9,-999.0,28,-99.99,,,0.00,Acu-Link.com,2013-04-03 23:17:00,
2013-04-03 19:33:00,44.8,16.0,30.02,NE,45,8.9,-999.0,31,-99.99,,,0.00,Acu-Link.com,2013-04-03 23:33:00,
2013-04-03 19:48:00,44.2,15.5,30.02,ENE,67,6.8,-999.0,31,-99.99,,,0.00,Acu-Link.com,2013-04-03 23:48:00,
2013-04-03 20:03:00,43.5,16.3,30.01,ENE,67,7.3,-999.0,33,-99.99,,,0.00,Acu-Link.com,2013-04-04 00:03:00,
2013-04-03 20:18:00,43.0,16.6,30.01,NE,45,7.3,-999.0,34,-99.99,,,0.00,Acu-Link.com,2013-04-04 00:18:00,
2013-04-03 20:33:00,42.6,16.2,30.02,NE,45,8.9,-999.0,34,-99.99,,,0.00,Acu-Link.com,2013-04-04 00:33:00,
2013-04-03 20:48:00,42.1,16.4,30.02,ENE,67,5.3,-999.0,35,-99.99,,,0.00,Acu-Link.com,2013-04-04 00:48:00,
2013-04-03 21:03:00,41.5,16.6,30.02,East,90,5.8,-999.0,36,-99.99,,,0.00,Acu-Link.com,2013-04-04 01:03:00,
2013-04-03 22:04:00,39.2,16.9,30.03,ENE,67,5.8,-999.0,40,-99.99,,,0.00,Acu-Link.com,2013-04-04 02:04:00,
2013-04-03 22:49:00,38.5,15.7,30.06,NE,45,3.7,-999.0,39,-99.99,,,0.00,Acu-Link.com,2013-04-04 02:49:00,
2013-04-03 23:04:00,36.9,16.0,30.05,NNE,22,3.7,-999.0,42,-99.99,,,0.00,Acu-Link.com,2013-04-04 03:04:00,
2013-04-03 23:19:00,35.4,17.2,30.06,SSE,157,1.1,-999.0,47,-99.99,,,0.00,Acu-Link.com,2013-04-04 03:19:00,
2013-04-03 23:34:00,34.7,19.3,30.06,East,90,1.1,-999.0,53,-99.99,,,0.00,Acu-Link.com,2013-04-04 03:34:00,
2013-04-03 23:49:00,34.0,19.6,30.06,ESE,112,1.7,-999.0,55,-99.99,,,0.00,Acu-Link.com,2013-04-04 03:49:00,